Weather reports worldwide

Advertisment
Soderstjerna, Sweden (2667): temperature & dewpoint: 04.07.2020 12:00:00 - 10.07.2020 12:00:00 (CEST)Soderstjerna, Sweden (2667): wind speed & gusts: 04.07.2020 12:00:00 - 10.07.2020 12:00:00 (CEST)Soderstjerna, Sweden (2667): wind direction: 04.07.2020 12:00:00 - 10.07.2020 12:00:00 (CEST)Soderstjerna, Sweden (2667): reduced air pressure: 04.07.2020 12:00:00 - 10.07.2020 12:00:00 (CEST)Soderstjerna, Sweden (2667): visibility: 04.07.2020 12:00:00 - 10.07.2020 12:00:00 (CEST)Soderstjerna, Sweden (2667): precipitation: 04.07.2020 12:00:00 - 10.07.2020 12:00:00 (CEST)
Date & Time tt [°C] td [°C] ff [km/h] ff [kn] fx [km/h] fx [kn] dd ppp [hPa] vv [km] rr [mm]
10.07.2020 12:00:00 - - - - - - - - - -
10.07.2020 11:00:00 15,0 11,8 14 8 18 10 S 1008,9 45 0,0
10.07.2020 10:00:00 15,5 11,7 11 6 14 8 S 1009,0 40 0,0
10.07.2020 09:00:00 15,1 11,5 4 2 7 4 WSW 1009,3 35 0,0
10.07.2020 08:00:00 14,1 11,3 4 2 7 4 W 1009,1 40 0,0
10.07.2020 07:00:00 14,0 11,3 4 2 7 4 ENE 1009,1 45 0,0
10.07.2020 06:00:00 13,1 11,5 4 2 7 4 ENE 1009,6 45 0,0
10.07.2020 05:00:00 11,7 10,3 0 0 4 2 N 1009,6 45 0,0
10.07.2020 04:00:00 12,2 10,6 4 2 4 2 NNE 1009,7 45 0,0
10.07.2020 03:00:00 13,4 10,6 4 2 7 4 W 1010,3 50 0,0
10.07.2020 02:00:00 13,3 9,9 7 4 11 6 SW 1010,6 50 0,0
10.07.2020 01:00:00 13,6 9,8 7 4 14 8 S 1010,7 50 0,0
10.07.2020 00:00:00 13,8 10,8 11 6 14 8 SW 1010,9 45 0,0
09.07.2020 23:00:00 14,2 10,6 11 6 14 8 SSW 1010,9 50 0,0
09.07.2020 22:00:00 14,7 10,5 11 6 18 10 SW 1011,2 45 0,0
09.07.2020 21:00:00 15,2 10,4 14 8 22 12 SW 1011,3 45 0,0
09.07.2020 20:00:00 15,1 10,9 14 8 22 12 SW 1011,3 45 0,0
09.07.2020 19:00:00 15,3 10,9 18 10 25 14 SW 1011,7 40 0,0
09.07.2020 18:00:00 16,9 10,3 18 10 25 14 SW 1012,0 45 0,0
09.07.2020 17:00:00 17,0 10,4 22 12 29 16 SW 1012,4 35 0,0
09.07.2020 16:00:00 16,8 11,1 25 14 32 18 SW 1012,8 35 0,0
09.07.2020 15:00:00 17,3 11,1 25 14 32 18 SW 1013,0 30 0,0
09.07.2020 14:00:00 17,0 11,1 22 12 29 16 SW 1013,4 30 0,0
09.07.2020 13:00:00 16,3 10,4 22 12 29 16 SW 1013,7 40 0,0
09.07.2020 12:00:00 16,0 10,7 22 12 25 14 SW 1013,6 30 0,0
09.07.2020 11:00:00 15,3 10,7 18 10 29 16 WSW 1013,7 35 0,0
09.07.2020 10:00:00 14,6 11,0 22 12 25 14 WSW 1013,9 26 0,0
09.07.2020 09:00:00 14,6 11,6 18 10 22 12 WSW 1013,7 35 0,0
09.07.2020 08:00:00 14,1 11,3 14 8 22 12 W 1013,6 35 0,0
09.07.2020 07:00:00 13,6 11,1 14 8 18 10 W 1013,4 35 0,0
09.07.2020 06:00:00 12,8 10,7 14 8 22 12 W 1013,3 40 0,0
09.07.2020 05:00:00 12,4 9,9 14 8 22 12 W 1013,1 45 0,0
09.07.2020 04:00:00 12,9 9,9 14 8 25 14 WNW 1012,8 45 0,0
09.07.2020 03:00:00 13,6 10,8 22 12 29 16 W 1012,7 45 0,0
09.07.2020 02:00:00 13,9 10,5 22 12 29 16 W 1012,6 45 0,0
09.07.2020 01:00:00 14,1 10,5 25 14 32 18 W 1012,5 45 0,0
09.07.2020 00:00:00 14,4 10,0 22 12 32 18 W 1012,5 45 0,0
08.07.2020 23:00:00 14,9 9,0 22 12 25 14 W 1012,0 45 0,0
08.07.2020 22:00:00 14,3 8,7 4 2 11 6 W 1011,6 50 0,0
08.07.2020 21:00:00 15,3 8,8 4 2 22 12 N 1011,1 50 0,0
08.07.2020 20:00:00 16,1 10,6 11 6 43 23 NW 1010,4 40 0,0
08.07.2020 19:00:00 16,1 10,2 32 18 43 23 WSW 1009,7 45 0,0
08.07.2020 18:00:00 16,6 9,5 32 18 40 21 WSW 1009,4 45 0,0
08.07.2020 17:00:00 16,7 9,4 32 18 43 23 WSW 1009,3 40 0,0
08.07.2020 16:00:00 16,5 9,2 40 21 47 25 WSW 1009,1 40 0,0
08.07.2020 15:00:00 16,1 9,3 36 19 47 25 WSW 1009,0 35 0,0
08.07.2020 14:00:00 15,8 8,8 36 19 47 25 WSW 1008,7 40 0,0
08.07.2020 13:00:00 15,4 9,5 32 18 47 25 WSW 1008,7 40 0,0
08.07.2020 12:00:00 14,5 9,3 36 19 50 27 WSW 1008,6 40 0,0
08.07.2020 11:00:00 14,3 9,3 40 21 54 29 WSW 1008,4 40 0,0
08.07.2020 10:00:00 14,0 9,4 40 21 50 27 W 1008,3 35 0,0
08.07.2020 09:00:00 13,1 9,9 36 19 47 25 WSW 1008,2 40 0,0
08.07.2020 08:00:00 13,1 9,9 36 19 47 25 W 1008,2 35 0,0
08.07.2020 07:00:00 12,9 9,7 36 19 47 25 W 1008,3 40 0,0
08.07.2020 06:00:00 12,6 9,8 36 19 43 23 W 1008,3 40 0,0
08.07.2020 05:00:00 12,5 9,7 32 18 40 21 W 1008,4 45 0,0
08.07.2020 04:00:00 12,5 9,5 25 14 36 19 W 1008,6 45 0,0
08.07.2020 03:00:00 13,0 10,4 25 14 32 18 W 1008,9 45 0,0
08.07.2020 02:00:00 13,0 10,5 25 14 32 18 W 1009,2 45 0,0
08.07.2020 01:00:00 13,0 9,6 25 14 36 19 WSW 1009,4 45 0,0
08.07.2020 00:00:00 13,3 10,8 29 16 36 19 W 1009,5 50 0,0
07.07.2020 23:00:00 13,5 10,8 29 16 40 21 W 1009,8 35 0,0
07.07.2020 22:00:00 14,3 11,3 25 14 40 21 WSW 1009,9 45 0,0
07.07.2020 21:00:00 14,3 10,3 32 18 40 21 WSW 1010,3 50 0,0
07.07.2020 20:00:00 13,8 11,0 25 14 40 21 WSW 1010,7 45 0,0
07.07.2020 19:00:00 13,7 11,7 18 10 47 25 WSW 1011,1 40 2,0
07.07.2020 18:00:00 15,9 10,6 29 16 50 27 WSW 1011,2 45 0,0
07.07.2020 17:00:00 16,6 11,7 29 16 40 21 WSW 1011,2 40 0,0
07.07.2020 16:00:00 17,1 9,8 32 18 54 29 WSW 1011,3 35 0,0
07.07.2020 15:00:00 17,0 10,8 36 19 47 25 WSW 1011,2 30 0,0
07.07.2020 14:00:00 17,0 10,8 36 19 43 23 WSW 1010,9 35 0,0
07.07.2020 13:00:00 17,2 10,3 32 18 50 27 W 1011,1 40 0,0
07.07.2020 12:00:00 16,7 10,8 29 16 43 23 W 1010,8 35 0,0
07.07.2020 11:00:00 17,2 9,4 29 16 43 23 W 1010,4 40 0,0
07.07.2020 10:00:00 16,0 8,5 25 14 43 23 WNW 1009,9 30 0,0
07.07.2020 09:00:00 15,0 9,4 32 18 43 23 W 1009,5 40 0,0
07.07.2020 08:00:00 14,6 10,2 32 18 43 23 W 1009,2 29 0,0
07.07.2020 07:00:00 13,8 10,2 32 18 47 25 W 1008,6 24 0,0
07.07.2020 06:00:00 13,6 10,4 40 21 50 27 W 1008,0 21 0,0
07.07.2020 05:00:00 13,7 10,3 32 18 50 27 W 1007,7 21 0,0
07.07.2020 04:00:00 14,0 10,4 40 21 50 27 W 1006,9 21 0,0
07.07.2020 03:00:00 14,3 10,7 40 21 54 29 W 1006,4 21 0,0
07.07.2020 02:00:00 14,6 10,6 40 21 54 29 W 1006,1 20 0,0
07.07.2020 01:00:00 15,1 10,5 40 21 61 33 W 1005,5 20 0,0
07.07.2020 00:00:00 15,3 11,1 43 23 61 33 W 1004,8 20 0,0
06.07.2020 23:00:00 15,5 11,9 43 23 61 33 W 1004,0 20 0,0
06.07.2020 22:00:00 15,6 12,2 50 27 61 33 W 1003,4 24 0,0
06.07.2020 21:00:00 15,7 12,4 47 25 65 35 WSW 1002,5 29 0,0
06.07.2020 20:00:00 16,2 12,4 43 23 61 33 WSW 1002,3 40 0,0
06.07.2020 19:00:00 16,1 12,5 40 21 65 35 WSW 1002,1 40 0,0
06.07.2020 18:00:00 16,8 12,1 43 23 58 31 WSW 1001,5 40 0,0
06.07.2020 17:00:00 17,1 11,6 43 23 54 29 WSW 1001,5 30 0,0
06.07.2020 16:00:00 16,0 12,9 40 21 54 29 WSW 1001,4 17 0,1
06.07.2020 15:00:00 16,9 12,2 40 21 58 31 WSW 1001,1 30 0,0
06.07.2020 14:00:00 15,9 12,5 43 23 61 33 WSW 1001,1 30 0,0
06.07.2020 13:00:00 15,5 11,9 40 21 61 33 WSW 1001,2 27 0,1
06.07.2020 12:00:00 16,4 12,0 43 23 58 31 WSW 1000,9 35 0,0
06.07.2020 11:00:00 16,5 12,1 43 23 58 31 SW 1000,3 26 0,0
06.07.2020 10:00:00 15,9 12,1 43 23 58 31 WSW 1000,4 35 0,0
06.07.2020 09:00:00 15,7 12,1 47 25 58 31 WSW 1000,3 30 0,0
06.07.2020 08:00:00 15,9 11,9 43 23 58 31 WSW 1000,5 28 0,0
06.07.2020 07:00:00 15,5 12,3 43 23 58 31 WSW 1000,7 25 0,0
06.07.2020 06:00:00 15,1 11,5 40 21 54 29 WSW 1000,7 30 0,0
06.07.2020 05:00:00 14,9 11,5 40 21 58 31 WSW 1000,6 30 0,0
06.07.2020 04:00:00 15,1 11,9 43 23 58 31 WSW 1000,8 30 0,0
06.07.2020 03:00:00 15,4 12,2 43 23 58 31 WSW 1001,0 29 0,0
06.07.2020 02:00:00 15,7 12,4 36 19 54 29 WSW 1001,0 27 0,0
06.07.2020 01:00:00 16,2 12,2 43 23 54 29 WSW 1001,0 30 0,0
06.07.2020 00:00:00 16,7 12,2 40 21 54 29 WSW 1001,0 30 0,0
05.07.2020 23:00:00 17,1 12,8 36 19 54 29 WSW 1000,9 30 0,0
05.07.2020 22:00:00 17,8 12,9 43 23 61 33 WSW 1000,7 30 0,0
05.07.2020 21:00:00 18,5 13,6 50 27 61 33 WSW 999,9 30 0,0
05.07.2020 20:00:00 18,3 15,5 43 23 61 33 WSW 999,8 27 0,0
05.07.2020 19:00:00 18,7 16,1 47 25 61 33 SW 999,8 30 0,0
05.07.2020 18:00:00 18,7 16,8 47 25 65 35 WSW 999,7 29 0,1
05.07.2020 17:00:00 18,3 16,8 47 25 65 35 SW 1000,1 24 0,0
05.07.2020 16:00:00 18,6 17,1 50 27 61 33 SW 999,9 23 0,0
05.07.2020 15:00:00 18,4 17,2 47 25 61 33 SW 1000,4 25 0,0
05.07.2020 14:00:00 18,4 17,4 47 25 58 31 SW 1000,6 24 0,0
05.07.2020 13:00:00 18,1 17,6 43 23 54 29 SW 1001,1 12 0,0
05.07.2020 12:00:00 18,0 17,4 40 21 50 27 SW 1001,7 20 0,0
05.07.2020 11:00:00 18,1 17,5 32 18 43 23 SW 1002,3 22 0,0
05.07.2020 10:00:00 17,5 17,2 32 18 43 23 SW 1003,0 16 0,0
05.07.2020 09:00:00 17,3 17,0 32 18 43 23 SW 1003,6 14 0,1
05.07.2020 08:00:00 17,0 16,7 32 18 40 21 SW 1004,1 5 0,0
05.07.2020 07:00:00 17,0 16,7 29 16 36 19 SW 1004,4 13 0,1
05.07.2020 06:00:00 16,9 16,5 29 16 32 18 SW 1004,8 19 0,0
05.07.2020 05:00:00 16,9 16,4 25 14 32 18 SW 1004,8 45 0,0
05.07.2020 04:00:00 16,7 16,2 25 14 32 18 WSW 1005,0 30 0,4
05.07.2020 03:00:00 16,8 16,3 25 14 36 19 WSW 1005,3 35 0,0
05.07.2020 02:00:00 16,8 16,3 29 16 40 21 WSW 1005,4 27 0,0
05.07.2020 01:00:00 16,9 16,4 32 18 47 25 WSW 1005,6 16 0,1
05.07.2020 00:00:00 17,0 16,5 36 19 54 29 SW 1005,6 14 0,0
04.07.2020 23:00:00 17,0 16,5 43 23 54 29 SW 1005,8 15 0,5
04.07.2020 22:00:00 16,6 16,1 36 19 50 27 SW 1006,2 7 0,8
04.07.2020 21:00:00 16,4 15,9 36 19 43 23 SW 1006,5 9 0,8
04.07.2020 20:00:00 16,3 15,8 36 19 50 27 SW 1006,8 10 0,6
04.07.2020 19:00:00 16,2 15,7 32 18 47 25 WSW 1007,3 8 0,9
04.07.2020 18:00:00 16,2 15,7 36 19 47 25 SW 1007,7 6 0,6
04.07.2020 17:00:00 16,3 15,7 36 19 50 27 WSW 1008,2 7 0,1
04.07.2020 16:00:00 17,0 15,3 40 21 50 27 SW 1008,2 22 0,0
04.07.2020 15:00:00 17,4 15,6 40 21 50 27 SW 1008,3 21 0,0
04.07.2020 14:00:00 17,3 15,6 40 21 50 27 SW 1008,4 22 0,0
04.07.2020 13:00:00 17,4 15,6 40 21 50 27 SW 1008,5 17 0,0
04.07.2020 12:00:00 17,5 15,7 40 21 50 27 WSW 1008,4 22 0,0

tt = temperature
td = dewpoint
ff = wind speed
fx = gusts
dd = wind direction
ppp = reduced air pressure
vv = visibility
rr = precipitation

Next stations